Tracking 18624 objects as of 26-April-2017
HD Live streaming from Space Station
objects crossing your sky now

OPS 9442 (DSCS 2-12)

Track OPS 9442 (DSCS 2-12) now!
OPS 9442 (DSCS 2-12) is classified as:


NORAD ID: 11145
Int'l Code: 1978-113B
Perigee: 36,298.7 km
Apogee: 36,331.4 km
Inclination: 14.6 °
Period: 1,462.8 minutes
Semi major axis: 42686 km
RCS: 5.0418 m2 (large)
Launch date: December 14, 1978
Source: United States (US)
Launch site: AIR FORCE EASTERN TEST RANGE (AFETR)
Your satellite tracking list
Your tracking list is empty





NASA's NSSDC Master Catalog

Two Line Element Set (TLE):
1 11145U 78113B   17114.48104216 -.00000028 +00000-0 +00000-0 0  9993
2 11145 014.5726 335.4086 0003823 078.7156 200.0380 00.98440518084170
Source of the keplerian elements: AFSPC